[[{"header":{"parameterUnit":"m.s-1","parameterCategory":1,"la1":30.2991,"la2":30.254,"lo1":-89.0895,"lo2":-89.0444,"dy":0.0017,"dx":0.0017,"nx":28,"ny":28,"refTime":"2026-01-03T03:00:00:Z","depth":0,"parameterNumber":2,"parameterNumberName":"U-component_of_WINDS"},"data":[0,0,0,0,0,0,0,0,0,0,0,0,0,0,0,0,0,0,0,0,0,0,0,0,0,0,0,0,0,0,0,0,0,0,0,0,0,0,0,0,0,0,0,0,0,0,0,0,0,0,0,0,0,0,0,0,0,0,1.7795,1.7795,0,1.7861,1.7862,1.7863,1.7851,1.785,1.7849,1.7848,1.792,1.7923,1.7926,0,0,0,0,0,0,0,0,0,0,0,0,0,1.7662,1.7664,1.7795,1.7796,1.7796,1.7861,1.7862,1.7863,1.7852,1.785,1.7849,1.7847,1.7919,1.7923,1.7926,0,0,0,0,0,0,0,0,0,0,0,0,0,1.7723,1.7665,1.7795,1.7798,1.7799,1.7861,1.7862,1.7863,1.7852,1.785,1.7848,1.7847,1.7918,1.7923,1.7927,1.7991,0,0,1.7941,1.7943,0,0,0,0,0,0,0,0,1.772,1.7728,1.7797,1.7798,1.7799,1.7846,1.7842,1.7906,1.7852,1.7832,1.7848,1.7846,1.7897,1.7903,1.792,1.7994,1.7997,1.7941,1.7944,1.7946,1.7947,0,0,0,0,0,0,0,1.7715,1.7725,1.7821,1.7798,1.7799,1.7798,1.7805,1.7854,1.7874,1.7834,1.7833,1.7841,1.7898,1.7916,1.7922,1.7998,1.7941,1.7945,1.7948,1.795,1.813,1.8132,0,0,0,0,0,0,1.7709,1.7722,1.7819,1.7823,1.7754,1.7802,1.7809,1.7833,1.7873,1.7878,1.7842,1.784,1.7909,1.7916,1.7924,1.8003,1.7946,1.795,1.7953,1.8128,1.813,1.8132,0,0,0,0,0,0,1.7707,1.7718,1.7816,1.7772,1.7785,1.7806,1.7833,1.7835,1.7853,1.788,1.7884,1.7857,1.7908,1.7918,1.7974,1.8005,1.7952,1.7956,1.8125,1.8128,1.8131,1.8159,0,0,0,0,0,0,1.7703,1.7717,1.774,1.7773,1.7787,1.7864,1.7834,1.7838,1.7861,1.7858,1.7894,1.7899,1.7907,1.7968,1.7979,1.801,1.796,1.8123,1.8127,1.813,1.8155,1.8163,1.8169,0,0,0,0,0,1.7698,1.7746,1.7742,1.7753,1.7816,1.7866,1.7874,1.7882,1.7863,1.7888,1.7905,1.7898,1.7999,1.7973,1.7986,1.8019,1.8121,1.8125,1.813,1.8152,1.8161,1.8169,0,0,0,0,0,0,1.7718,1.775,1.7746,1.7805,1.7833,1.7864,1.7895,1.789,1.7925,1.7921,1.793,1.7939,1.7996,1.8013,1.7984,1.8084,1.8058,1.8065,1.8071,1.8079,1.8086,1.8081,1.7964,0,0,0,0,0,1.7729,1.7765,1.7792,1.7842,1.7856,1.7873,1.7895,1.7898,1.7928,1.7939,1.7961,1.7991,1.803,1.8055,1.8092,1.8158,1.8166,1.8187,1.8193,1.8199,1.8205,1.8243,1.8253,1.8147,1.8147,1.8147,0,0,1.7752,1.7775,1.7797,1.7847,1.7868,1.7907,1.7883,1.7925,1.7954,1.7946,1.8001,1.8018,1.8052,1.8113,1.8142,1.8129,1.8236,1.8205,1.8209,1.8212,1.8249,1.8259,1.8268,1.8151,1.815,1.8149,0,0,1.7815,1.7835,1.788,1.7902,1.7935,1.7946,1.7957,1.7989,1.7999,1.8054,1.8049,1.8085,1.8151,1.8176,1.8198,1.8272,1.8267,1.8283,1.8319,1.8355,1.8364,1.8371,1.8399,1.8409,1.829,1.829,1.829,0,1.7841,1.7898,1.7904,1.7946,1.7969,1.7963,1.8009,1.8031,1.8074,1.8091,1.8076,1.816,1.8183,1.8251,1.8269,1.8286,1.83,1.828,1.8362,1.8369,1.8376,1.8403,1.8413,1.8292,1.8292,1.8291,1.8291,0,1.7929,1.7968,1.8001,1.8042,1.8069,1.8113,1.8127,1.8153,1.8155,1.8168,1.8225,1.8251,1.8295,1.8311,1.8313,1.838,1.8372,1.8359,1.8333,1.8388,1.8414,1.8424,1.8294,1.8294,1.8293,1.8293,0,0,1.8006,1.805,1.8062,1.8082,1.8118,1.815,1.8195,1.8236,1.8259,1.829,1.8329,1.8385,1.8374,1.8399,1.8404,1.8436,1.8494,1.842,1.8421,1.8434,1.8572,1.8582,1.8594,1.8491,1.8493,1.8494,1.857,0,1.8073,1.8151,1.8158,1.8229,1.8267,1.8262,1.8301,1.8328,1.8342,1.8378,1.8394,1.8434,1.8416,1.8431,1.8462,1.848,1.8522,1.8475,1.8529,1.8531,1.8522,1.8607,1.8617,1.8687,1.8579,1.8581,1.8582,0,1.8162,1.8195,1.8269,1.8301,1.8318,1.8353,1.8392,1.8425,1.8457,1.8465,1.8492,1.8493,1.8542,1.8513,1.8581,1.8548,1.8571,1.8584,1.8587,1.8593,1.8561,1.8617,1.8709,1.872,1.8598,1.8596,1.8595,0,1.8213,1.8276,1.8328,1.8345,1.8384,1.8409,1.8426,1.8456,1.8481,1.8516,1.8532,1.8572,1.8595,1.8627,1.8639,1.8617,1.8707,1.8679,1.8716,1.8716,1.8736,1.8735,1.8835,1.8749,1.8749,1.8748,1.8748,0,1.8288,1.8334,1.8352,1.8384,1.8437,1.8445,1.8497,1.8513,1.854,1.8577,1.8575,1.861,1.8624,1.8662,1.8672,1.8728,1.8737,1.8747,1.8749,1.8748,1.8747,1.8763,1.8759,1.8751,1.8751,1.875,1.8749,0,1.8354,1.8367,1.8425,1.8456,1.8466,1.8503,1.8531,1.8563,1.8577,1.8624,1.8636,1.8657,1.8702,1.8717,1.8772,1.8779,1.8844,1.8841,1.8833,1.8833,1.887,1.8867,1.8985,1.9002,1.8904,1.8905,1.8906,0,1.8401,1.8436,1.8472,1.8496,1.8515,1.8554,1.8579,1.8589,1.8616,1.8655,1.8684,1.8728,1.8763,1.8835,1.8857,1.8899,1.8899,1.8937,1.8905,1.8903,1.8901,1.8899,1.8904,1.8944,1.8945,1.8945,1.8946,0,1.8485,1.849,1.8526,1.8565,1.8595,1.8626,1.8656,1.8677,1.8691,1.8722,1.8767,1.8795,1.885,1.8895,1.8938,1.8958,1.8956,1.8956,1.8967,1.8967,1.8961,1.8966,1.885,1.8953,1.8953,1.8952,1.8952,1.8951,1.8544,1.8575,1.8606,1.8646,1.867,1.8699,1.8731,1.8749,1.8786,1.8832,1.8836,1.8885,1.8918,1.8975,1.8997,1.9037,1.9026,1.9042,1.9046,1.9051,1.9054,1.8953,1.9045,1.9045,1.9044,1.9044,1.9044,0,1.8628,1.8648,1.8685,1.8727,1.876,1.8753,1.8787,1.8815,1.8858,1.8888,1.8923,1.8976,1.902,1.9045,1.9089,1.9116,1.9117,1.9128,1.9127,1.9132,1.906,1.9047,1.9127,1.9127,1.9127,1.9127,1.9127,1.9127,1.8676,1.873,1.8739,1.8805,1.8825,1.8872,1.8893,1.892,1.8944,1.9003,1.9039,1.9054,1.9083,1.913,1.917,1.9176,1.9193,1.9206,1.9212,1.9145,1.9136,1.9128,1.9116,1.9209,1.9209,1.928,1.9281,1.9281]},{"header":{"parameterUnit":"m.s-1","parameterCategory":1,"la1":30.2991,"la2":30.254,"lo1":-89.0895,"lo2":-89.0444,"dy":0.0017,"dx":0.0017,"nx":28,"ny":28,"refTime":"2026-01-03T03:00:00:Z","depth":0,"parameterNumber":3,"parameterNumberName":"V-component_of_WINDS"},"data":[0,0,0,0,0,0,0,0,0,0,0,0,0,0,0,0,0,0,0,0,0,0,0,0,0,0,0,0,0,0,0,0,0,0,0,0,0,0,0,0,0,0,0,0,0,0,0,0,0,0,0,0,0,0,0,0,0,0,4.2621,4.2622,0,4.2739,4.274,4.2741,4.2748,4.2747,4.2745,4.2744,4.2865,4.2869,4.2873,0,0,0,0,0,0,0,0,0,0,0,0,0,4.2403,4.2407,4.2621,4.2622,4.2624,4.2738,4.274,4.2742,4.2748,4.2747,4.2745,4.2743,4.2863,4.2868,4.2874,0,0,0,0,0,0,0,0,0,0,0,0,0,4.2507,4.2408,4.262,4.2641,4.2644,4.2738,4.274,4.2742,4.2749,4.2747,4.2745,4.2743,4.2861,4.2868,4.2875,4.2956,0,0,4.2895,4.2898,0,0,0,0,0,0,0,0,4.2501,4.2515,4.2636,4.264,4.2643,4.2727,4.2707,4.2814,4.2749,4.2709,4.2744,4.2742,4.282,4.283,4.2857,4.2962,4.2967,4.2896,4.29,4.2903,4.2904,0,0,0,0,0,0,0,4.2493,4.2509,4.2667,4.2638,4.2642,4.2644,4.2657,4.2728,4.2775,4.2712,4.2713,4.2727,4.2822,4.285,4.286,4.2969,4.2895,4.2901,4.2906,4.2908,4.315,4.3152,0,0,0,0,0,0,4.2482,4.2503,4.2664,4.2671,4.2565,4.265,4.2664,4.2702,4.2774,4.2783,4.2728,4.2727,4.284,4.2852,4.2864,4.2967,4.2902,4.2909,4.2913,4.3147,4.315,4.3153,0,0,0,0,0,0,4.2477,4.2496,4.2659,4.2588,4.2608,4.2656,4.2698,4.2705,4.2734,4.2786,4.2794,4.2749,4.2839,4.2855,4.2934,4.2971,4.2912,4.2918,4.3144,4.3148,4.3151,4.3171,0,0,0,0,0,0,4.2471,4.2495,4.2526,4.2588,4.2612,4.2727,4.2701,4.2709,4.2745,4.2744,4.2808,4.2816,4.2838,4.2924,4.2941,4.2979,4.2923,4.3141,4.3146,4.315,4.3167,4.3175,4.3181,0,0,0,0,0,4.2463,4.2526,4.2528,4.2547,4.2652,4.2729,4.2743,4.2767,4.2748,4.2781,4.2814,4.2814,4.2964,4.2932,4.2951,4.2992,4.3139,4.3145,4.315,4.3164,4.3173,4.3181,0,0,0,0,0,0,4.2467,4.2535,4.2537,4.2622,4.267,4.273,4.2771,4.2775,4.2829,4.2826,4.2854,4.2868,4.2947,4.2977,4.2941,4.3076,4.3049,4.3059,4.3054,4.3063,4.307,4.3062,4.2929,0,0,0,0,0,4.2477,4.2534,4.259,4.266,4.2683,4.2723,4.2757,4.2772,4.2823,4.2843,4.2882,4.2932,4.299,4.3028,4.3084,4.3171,4.3186,4.3209,4.3216,4.3221,4.3229,4.328,4.3291,4.317,4.317,4.317,0,0,4.25,4.2544,4.2578,4.2661,4.27,4.2759,4.274,4.2802,4.2846,4.2852,4.2931,4.2961,4.3018,4.3102,4.3141,4.3129,4.3266,4.3228,4.3232,4.3238,4.3287,4.3298,4.3308,4.3174,4.3173,4.3173,0,0,4.2572,4.261,4.2673,4.2713,4.2772,4.2798,4.2813,4.2873,4.2894,4.2973,4.2979,4.3032,4.3131,4.3172,4.3206,4.3294,4.3297,4.3311,4.3348,4.3397,4.3407,4.3416,4.3449,4.3461,4.3319,4.3319,4.3319,0,4.2593,4.2681,4.2705,4.2768,4.2805,4.2814,4.2879,4.2916,4.299,4.3016,4.3001,4.3127,4.3166,4.3261,4.3283,4.3309,4.3328,4.3305,4.3404,4.3413,4.3421,4.3454,4.3466,4.3321,4.3321,4.332,4.332,0,4.2705,4.2766,4.281,4.2882,4.2924,4.2988,4.3022,4.3062,4.3073,4.3101,4.3182,4.3228,4.3295,4.3319,4.3329,4.3416,4.3407,4.3398,4.3372,4.3434,4.3465,4.3477,4.3323,4.3322,4.3322,4.3322,0,0,4.2782,4.2868,4.2884,4.2918,4.2984,4.3032,4.3096,4.3162,4.3197,4.3248,4.3304,4.3388,4.338,4.3418,4.3434,4.3477,4.3547,4.3463,4.3464,4.3479,4.3647,4.3656,4.3669,4.3548,4.355,4.3552,4.3643,0,4.2863,4.2978,4.3002,4.3102,4.316,4.3169,4.3225,4.3272,4.33,4.3354,4.3384,4.3445,4.3429,4.3452,4.3495,4.3529,4.3581,4.3523,4.3602,4.3604,4.3589,4.3685,4.3694,4.3778,4.3655,4.3657,4.3659,0,4.2973,4.3028,4.3133,4.3194,4.3219,4.3269,4.3333,4.3383,4.3437,4.3454,4.3498,4.3509,4.3577,4.3547,4.3642,4.3602,4.3635,4.3657,4.3661,4.3671,4.3637,4.37,4.3805,4.3818,4.3678,4.3676,4.3675,0,4.3022,4.3122,4.3199,4.3227,4.3299,4.3334,4.3366,4.3418,4.3456,4.3511,4.3537,4.3599,4.3633,4.3681,4.371,4.3685,4.3804,4.3775,4.3821,4.3821,4.3848,4.3846,4.3961,4.3865,4.3865,4.3865,4.3864,0,4.3111,4.3176,4.3222,4.3269,4.3343,4.337,4.3442,4.3473,4.352,4.3574,4.3585,4.3635,4.3669,4.3724,4.3747,4.3823,4.3838,4.3855,4.3861,4.3856,4.3854,4.388,4.3875,4.3868,4.3867,4.3867,4.3866,0,4.3179,4.3212,4.3297,4.3358,4.3375,4.3427,4.3479,4.3526,4.3554,4.3623,4.3641,4.3685,4.3751,4.3784,4.3865,4.3881,4.3968,4.3969,4.395,4.3953,4.3998,4.3995,4.4136,4.4157,4.4045,4.4046,4.4047,0,4.3234,4.3285,4.3352,4.3389,4.3422,4.3482,4.3522,4.355,4.3591,4.3657,4.3697,4.3764,4.3819,4.3924,4.3964,4.4027,4.4031,4.4076,4.4041,4.4035,4.4035,4.4032,4.4039,4.4083,4.4084,4.4085,4.4086,0,4.3331,4.3345,4.3402,4.3466,4.3513,4.3564,4.3615,4.3645,4.3682,4.3727,4.3796,4.3839,4.3923,4.399,4.4056,4.4089,4.4095,4.4096,4.4111,4.4108,4.4096,4.4105,4.397,4.4094,4.4093,4.4092,4.4092,4.4092,4.3396,4.3442,4.3497,4.3561,4.3602,4.3649,4.3697,4.3731,4.3789,4.386,4.3873,4.3946,4.4,4.409,4.4125,4.4183,4.4173,4.4193,4.4199,4.4204,4.4208,4.4085,4.4195,4.4195,4.4195,4.4194,4.4194,0,4.3495,4.3531,4.3589,4.366,4.3711,4.3711,4.3767,4.3809,4.3874,4.3924,4.3978,4.4057,4.4123,4.4168,4.4234,4.4272,4.4276,4.4289,4.4287,4.4295,4.4212,4.4194,4.4284,4.4284,4.4284,4.4284,4.4284,4.4284,4.3552,4.3631,4.3652,4.3752,4.3787,4.386,4.3892,4.3936,4.3976,4.4065,4.4119,4.4148,4.4197,4.4267,4.4327,4.4339,4.4364,4.4377,4.4389,4.431,4.4301,4.4292,4.4275,4.4381,4.4381,4.4468,4.4468,4.4469]}]]